Location: Unspecified
(41.5000°N, 0.0000°E)
Time: 13:17:02
(UTC+00:00)

deb Explorer IX - Pass Details

Date: 27 June 2019
Orbit: 540 x 1110 km, 38.8° (Epoch: 24 August)

Event Time Altitude Azimuth Distance (km) Brightness Sun altitude
Rises 16:48:15 0° 279° (W) 3,902 ? 28.9°
Reaches altitude 10° 16:51:14 10° 271° (W) 2,966 ? 28.3°
Maximum altitude 16:57:45 35° 209° (SSW) 1,701 ? 27.1°
Drops below altitude 10° 17:04:03 10° 147° (SSE) 2,868 ? 25.9°
Sets 17:06:54 0° 139° (SE) 3,759 ? 25.4°
